Location: Bastelaar
(51.0950°N, 3.8602°E)
Time: 06:32:55
(UTC+00:00)

Resurs 01 Rocket - Pass Details

Date: 18 November 2025
Orbit: 626 x 637 km, 97.7° (Epoch: 17 December)

Event Time Altitude Azimuth Distance (km) Brightness Sun altitude
Exits shadow 17:30:24 19° 41° (NE) 1,540 3.1 -15.1°
Drops below altitude 10° 17:32:35 10° 13° (NNE) 2,037 4.0 -15.4°
Sets 17:35:14 0° 357° (N) 2,950 5.0 -15.8°
